Wind_Speed
7 6 6 5 4 6 7 10 11 11 11 12 11 12 13 14 13 13 12 12 12 13 12 11 10 8 7 7 7 6 6 5 5 4 4 3 2 2 2 1 1 1 1 1 2 3 3 3 3
6 5 5 5 4 5 8 9 10 11 11 11 10 11 12 12 12 12 12 12 13 13 12 11 10 9 7 6 6 5 5 4 4 4 4 3 2 1 1 1 1 1 0 1 2 3 3 4 4
6 5 5 5 4 6 8 9 9 10 11 11 10 10 11 11 11 12 12 12 13 13 12 11 10 9 8 6 5 5 5 4 4 4 4 3 2 2 1 1 0 0 0 1 2 2 3 4 4
6 5 3 3 4 7 9 9 10 11 10 11 11 11 11 11 11 12 12 13 13 12 11 11 10 10 9 7 6 6 5 5 4 4 4 3 3 2 2 1 1 1 1 1 2 2 3 3 3
7 4 2 2 3 4 7 8 9 11 10 11 12 12 11 11 11 11 11 12 12 11 11 11 11 10 10 8 6 6 5 5 5 5 5 4 3 3 2 2 2 2 2 1 1 2 3 3 3
7 5 2 2 3 3 4 6 7 10 10 12 12 12 11 11 10 10 11 12 11 11 11 10 10 10 10 8 7 6 5 5 5 5 5 5 4 4 4 3 3 3 3 3 3 3 3 3 4
7 5 2 0 2 2 4 6 7 9 10 11 12 12 11 11 11 10 10 10 10 10 11 11 10 10 10 9 8 7 6 5 5 5 5 5 5 5 5 5 4 4 4 5 4 4 4 4 4
8 7 3 2 1 3 4 5 8 10 10 11 12 12 12 11 11 11 10 10 9 9 10 10 10 10 9 9 8 7 6 6 6 6 6 6 6 5 5 5 5 5 5 5 5 5 5 4 4
9 8 5 2 2 3 3 6 9 10 9 11 11 12 12 11 11 11 10 10 9 9 9 10 10 10 10 9 9 8 7 6 6 6 6 6 6 6 5 6 6 6 6 6 6 6 6 5 5
10 8 6 4 3 4 5 6 9 9 9 11 12 12 11 11 11 11 10 10 10 10 10 10 10 10 10 9 9 9 8 7 7 6 6 6 6 6 5 5 6 6 7 7 6 6 7 7 6
12 9 7 6 6 5 6 7 9 10 10 11 11 11 11 11 11 11 11 10 10 10 10 10 10 10 10 9 9 9 9 8 8 7 7 7 7 7 7 7 6 6 7 7 7 7 7 8 8
13 11 9 9 9 8 8 9 9 9 10 11 11 11 11 11 11 10 10 10 11 11 10 10 10 10 10 10 10 9 9 8 8 8 8 7 7 7 7 7 6 6 7 7 6 7 7 8 9
14 11 11 11 10 10 9 10 11 11 11 11 11 11 11 11 11 11 11 10 11 10 11 11 11 10 10 10 11 10 9 9 8 8 8 8 8 7 7 6 7 7 6 6 6 8 8 7 9
14 13 12 11 10 11 11 12 13 13 12 12 12 11 11 11 11 11 11 12 11 11 11 11 11 10 10 11 11 11 10 10 10 8 8 8 8 7 7 7 6 7 7 8 8 9 9 8 8
15 14 12 11 11 11 12 13 13 14 13 12 12 12 11 11 12 12 12 12 12 12 13 13 12 12 12 12 12 11 10 10 10 9 8 8 8 8 8 8 8 8 8 8 9 9 10 10 10
16 15 14 12 12 13 14 13 13 14 13 12 13 13 12 12 12 12 14 14 13 13 14 15 14 14 13 13 13 12 11 10 10 10 10 10 9 8 9 9 9 9 9 10 10 10 10 10 11
16 14 13 12 13 14 15 14 14 14 13 13 13 12 13 13 13 14 15 15 14 15 15 15 15 14 14 14 14 13 12 11 11 11 11 11 11 10 10 10 10 10 10 11 11 11 10 10 11
15 14 13 13 13 15 15 14 14 14 14 14 13 12 13 14 14 15 16 16 16 16 17 16 16 15 15 15 14 13 13 13 13 12 12 12 12 12 12 12 12 11 12 12 12 13 12 12 12
15 16 16 14 14 16 15 14 13 14 14 14 14 14 13 14 15 16 17 17 17 18 18 17 17 16 16 15 15 15 15 14 13 13 14 14 13 13 13 13 13 12 13 13 14 15 14 14 13
17 17 17 16 15 17 15 15 15 16 17 17 16 16 14 14 15 15 17 17 18 20 19 18 17 17 17 17 16 16 16 15 14 13 14 15 15 14 13 13 14 13 13 13 13 14 15 15 15
17 17 17 17 16 17 18 18 16 18 18 17 17 17 17 16 17 17 17 18 20 20 19 19 18 18 18 18 17 16 16 16 16 15 15 15 15 14 14 14 14 15 14 14 14 15 15 15 16
18 16 17 19 19 18 19 20 18 17 17 16 16 17 17 17 18 19 19 20 20 20 19 19 18 19 19 19 18 17 17 17 17 17 17 17 16 15 15 15 15 15 15 15 15 15 16 16 16
17 18 18 19 20 20 20 21 19 19 18 18 18 18 18 19 19 19 20 21 20 19 19 20 20 20 19 19 19 19 18 18 18 19 18 18 17 17 16 16 16 16 16 16 17 17 16 16 17
16 17 19 20 21 21 20 22 21 19 18 18 18 18 19 20 20 20 21 22 20 20 21 21 21 21 20 19 19 19 19 19 20 20 19 19 19 18 18 18 17 17 17 18 17 17 17 18 18
17 18 18 19 20 19 19 21 21 19 18 19 19 19 18 19 20 21 21 21 21 22 22 22 23 23 22 22 21 20 21 21 20 20 20 20 19 19 20 20 19 19 19 19 19 18 18 18 18
16 17 18 19 19 18 18 20 21 20 19 19 19 19 20 21 22 22 22 21 22 23 23 24 24 24 24 23 23 23 23 23 22 22 22 22 22 22 21 22 21 21 21 21 20 20 19 18 19
16 17 18 19 19 20 21 21 21 19 20 19 20 21 23 23 24 23 22 22 23 23 24 25 25 24 25 25 24 24 24 25 25 24 24 23 24 24 23 23 23 22 22 22 21 21 20 20 20
17 18 19 20 20 22 23 23 22 21 20 21 22 23 24 24 24 22 22 23 23 24 25 25 26 26 25 25 25 24 24 25 26 26 25 25 25 25 24 24 24 23 23 22 21 21 20 20 20
18 19 19 20 21 22 24 24 22 22 22 22 23 23 24 24 24 24 24 24 25 25 26 27 27 27 27 26 26 26 25 25 26 26 25 25 26 26 25 25 25 24 23 23 22 22 21 21 21
19 19 20 21 21 23 24 25 23 23 23 23 22 23 24 24 25 26 26 26 27 26 27 27 27 28 27 26 26 26 26 26 26 26 26 26 26 25 25 26 26 26 25 25 23 23 23 23 22
Wind_Direction
125 117 105 91 78 74 60 44 40 34 32 33 28 22 23 25 26 27 24 23 23 24 24 25 26 27 26 24 22 21 23 28 30 30 33 41 49 55 60 62 98 114 145 183 193 202 207 206 205
140 136 121 93 92 70 62 45 39 38 33 32 28 23 22 24 25 26 24 22 23 23 24 24 22 21 18 19 23 25 27 27 23 24 28 36 45 50 51 56 96 115 167 209 210 210 212 212 212
161 149 115 79 69 65 60 43 37 34 30 22 21 22 21 23 23 24 23 21 22 23 23 23 20 17 13 10 12 15 16 19 20 12 14 20 12 360 357 6 45 342 272 253 241 218 218 220 221
169 164 128 86 63 58 50 45 31 23 16 15 15 16 18 22 21 20 18 18 23 23 21 21 18 14 12 9 4 5 6 10 8 4 2 2 343 331 329 319 301 293 299 277 244 217 216 222 223
192 191 163 55 55 56 48 39 26 14 8 12 9 9 13 18 17 14 14 14 21 22 18 18 16 13 9 9 10 14 12 5 356 351 350 346 328 319 317 303 293 289 280 266 261 230 229 223 225
210 219 215 75 63 49 28 25 21 4 2 8 3 1 6 13 14 9 9 12 18 19 16 10 11 12 13 17 16 14 9 359 349 342 339 340 331 314 305 297 285 284 272 264 273 268 246 229 232
216 211 209 170 91 33 31 19 10 358 358 359 354 354 357 4 9 9 9 8 11 12 11 8 10 13 17 18 15 12 7 356 346 337 332 333 329 323 304 288 279 277 270 263 261 259 253 239 234
213 219 221 177 156 13 356 355 347 349 351 348 348 350 352 359 3 6 7 5 2 3 4 6 8 12 13 14 14 11 5 357 347 339 333 333 326 323 313 293 276 275 276 272 265 255 254 257 253
221 224 225 228 287 315 335 337 333 338 340 342 343 344 346 354 359 2 3 2 360 360 1 1 4 8 10 8 5 1 357 352 346 343 335 330 324 321 312 293 275 271 273 271 267 257 254 256 257
222 222 228 241 265 294 319 327 320 322 329 333 337 337 340 349 354 358 0 1 2 1 2 1 360 1 5 4 3 358 353 346 342 335 328 324 316 312 304 288 274 268 267 266 266 263 256 255 256
223 215 221 239 257 280 297 306 306 309 321 326 330 332 336 343 348 352 356 358 358 358 358 359 357 355 357 355 355 357 353 347 339 334 327 320 313 309 309 297 284 275 268 264 264 263 258 256 255
221 221 231 245 261 273 279 285 294 297 310 318 320 324 331 337 340 347 350 349 352 355 354 354 353 351 351 350 347 349 348 341 335 331 327 326 316 308 311 305 294 285 275 270 266 267 264 261 259
221 226 237 243 252 268 275 277 283 290 302 309 310 311 318 328 336 340 343 341 344 350 353 352 349 345 343 341 338 338 337 333 327 326 323 320 318 311 304 305 295 285 282 284 285 276 269 268 268
216 224 237 245 255 266 273 278 279 286 297 300 302 307 310 319 327 332 336 335 337 341 341 341 340 338 334 332 332 330 329 329 326 321 319 317 313 312 303 299 293 280 276 276 280 281 275 274 268
218 221 228 235 249 260 269 273 277 286 290 295 295 299 309 317 318 322 329 329 332 334 334 333 333 329 326 327 323 321 320 322 323 318 315 318 313 306 304 299 292 285 281 283 282 278 276 277 271
223 224 225 232 245 255 263 269 273 280 284 290 294 297 304 311 316 319 324 323 324 329 329 328 327 325 323 325 322 318 314 314 316 312 308 308 305 303 301 296 296 290 286 282 281 280 275 274 272
229 230 229 231 243 248 256 266 268 272 280 283 290 294 300 304 310 316 319 322 319 320 322 322 320 318 318 319 317 314 312 310 308 308 306 303 299 296 297 295 294 292 287 282 280 276 273 271 270
228 232 237 235 240 248 255 263 267 269 277 279 284 291 299 302 307 311 314 318 317 313 314 316 314 312 311 310 309 310 309 304 303 303 303 303 299 295 294 292 290 287 285 282 279 275 273 270 269
226 231 236 237 241 249 255 261 268 270 275 278 283 288 292 296 303 305 308 310 310 309 307 310 308 308 308 307 307 306 304 303 302 301 300 301 299 295 293 289 289 288 287 284 275 271 269 268 265
228 232 234 236 240 249 252 258 261 265 276 279 283 285 287 289 293 300 305 302 303 305 305 304 303 304 304 304 303 303 302 301 301 301 300 298 297 294 293 291 289 289 286 283 280 272 269 269 268
228 234 235 233 235 245 253 255 258 264 274 274 280 283 287 290 297 304 307 305 301 300 301 301 300 301 302 301 301 300 300 298 296 296 296 297 298 292 293 291 289 289 285 280 278 275 273 271 267
227 230 231 230 232 238 247 251 252 260 269 274 282 288 292 295 299 302 306 307 302 298 301 300 297 299 298 297 297 297 296 295 293 291 292 293 293 291 291 292 290 288 286 283 279 275 270 270 270
227 232 231 229 232 235 239 248 254 260 267 277 287 289 292 294 294 297 301 302 300 299 298 297 296 296 294 293 293 293 293 292 290 289 288 288 290 288 289 290 288 287 287 284 281 275 272 270 271
228 233 235 235 237 238 239 249 255 259 268 278 282 285 289 291 289 293 297 298 296 295 296 295 295 294 292 289 289 289 288 288 288 287 286 286 285 285 286 285 283 285 286 285 281 275 272 270 271
232 234 234 235 237 240 243 250 256 260 265 272 276 282 283 283 287 292 296 297 297 296 295 294 295 296 295 291 291 291 290 289 288 285 285 287 288 286 286 284 283 282 284 284 281 276 273 273 273
234 237 237 238 236 238 243 249 256 263 265 268 275 280 281 285 290 293 294 296 297 296 295 294 294 294 293 292 289 288 288 286 285 286 285 285 287 287 287 286 284 281 281 282 282 278 273 272 271
235 238 240 240 237 240 244 250 255 261 265 268 272 276 281 288 294 295 294 295 297 295 294 293 293 293 292 292 289 286 286 283 282 283 282 283 285 285 285 284 283 281 279 280 280 275 271 269 269
235 238 237 236 239 244 248 250 255 259 264 267 273 279 283 286 290 292 293 294 295 295 295 293 292 291 291 291 288 286 286 284 283 282 281 281 282 282 281 281 281 279 278 278 277 273 271 271 270
238 237 237 239 243 248 254 256 257 260 265 270 275 280 283 283 285 291 293 294 294 295 296 294 293 292 291 291 288 287 286 284 283 281 280 279 279 279 277 278 277 276 277 278 276 275 273 271 268
240 240 242 244 249 253 258 260 259 262 267 272 275 277 280 284 285 289 293 294 294 294 294 294 291 291 290 290 289 287 286 285 283 281 281 280 278 276 276 276 275 275 276 275 276 277 273 270 268
Height
5918 5918 5918 5918 5917 5916 5915 5915 5915 5915 5915 5913 5912 5911 5910 5909 5908 5909 5905 5901 5899 5897 5896 5894 5893 5892 5891 5890 5890 5889 5889 5888 5887 5887 5886 5885 5885 5884 5884 5884 5884 5883 5883 5883 5883 5883 5883 5883 5883
5918 5918 5918 5918 5916 5915 5916 5915 5916 5916 5916 5915 5914 5913 5911 5910 5908 5907 5904 5902 5900 5898 5896 5895 5894 5893 5892 5891 5890 5890 5889 5888 5888 5887 5886 5886 5885 5885 5884 5884 5884 5883 5883 5883 5883 5883 5883 5883 5883
5918 5918 5919 5918 5916 5915 5916 5916 5916 5916 5916 5915 5915 5914 5913 5911 5909 5907 5905 5903 5901 5899 5897 5896 5895 5893 5892 5891 5890 5890 5889 5888 5888 5887 5887 5886 5885 5885 5885 5884 5884 5884 5883 5883 5883 5883 5882 5882 5883
5918 5919 5919 5919 5916 5915 5916 5916 5916 5916 5916 5916 5915 5914 5913 5912 5909 5907 5905 5903 5901 5900 5898 5897 5895 5893 5892 5891 5890 5890 5889 5888 5888 5887 5887 5886 5885 5885 5885 5884 5884 5884 5883 5883 5882 5882 5882 5882 5882
5919 5918 5918 5917 5917 5916 5915 5916 5916 5917 5916 5916 5915 5914 5913 5912 5909 5907 5905 5904 5902 5901 5900 5898 5896 5893 5891 5890 5890 5889 5889 5888 5888 5887 5887 5886 5885 5885 5884 5884 5884 5883 5883 5882 5882 5882 5882 5882 5881
5919 5918 5918 5917 5916 5916 5916 5916 5916 5917 5916 5916 5915 5914 5912 5912 5910 5908 5906 5904 5903 5902 5900 5898 5896 5894 5891 5890 5890 5889 5889 5888 5888 5887 5886 5886 5885 5884 5884 5883 5883 5883 5882 5882 5882 5881 5881 5881 5881
5918 5918 5918 5917 5916 5916 5916 5915 5915 5916 5916 5915 5914 5913 5911 5911 5910 5908 5906 5905 5903 5902 5901 5899 5897 5894 5893 5891 5890 5890 5889 5888 5888 5887 5886 5885 5885 5884 5883 5883 5882 5882 5882 5881 5881 5881 5880 5880 5880
5917 5918 5917 5916 5915 5915 5916 5915 5915 5915 5916 5915 5914 5912 5911 5911 5909 5908 5906 5905 5904 5902 5901 5899 5897 5895 5894 5892 5891 5890 5889 5888 5887 5887 5886 5885 5884 5883 5882 5882 5882 5881 5881 5880 5880 5880 5879 5879 5879
5915 5917 5916 5915 5915 5915 5915 5916 5915 5915 5915 5914 5913 5912 5910 5909 5909 5908 5906 5905 5903 5902 5901 5899 5898 5896 5894 5893 5891 5890 5889 5888 5887 5886 5885 5884 5883 5882 5882 5881 5880 5880 5880 5879 5879 5878 5878 5878 5878
5914 5914 5914 5914 5914 5913 5914 5915 5915 5915 5914 5913 5911 5910 5909 5909 5908 5907 5906 5904 5903 5902 5900 5898 5897 5896 5894 5893 5891 5890 5889 5888 5887 5885 5884 5883 5883 5882 5881 5880 5879 5879 5878 5877 5877 5877 5877 5877 5877
5912 5913 5913 5913 5913 5912 5913 5913 5914 5913 5913 5913 5912 5910 5909 5908 5907 5906 5905 5904 5903 5902 5900 5899 5897 5896 5894 5893 5891 5890 5889 5887 5886 5885 5884 5883 5882 5880 5879 5878 5878 5877 5876 5876 5876 5875 5875 5875 5875
5910 5911 5911 5911 5911 5911 5911 5912 5912 5912 5912 5912 5911 5910 5909 5908 5907 5906 5905 5903 5902 5901 5899 5898 5897 5896 5894 5893 5891 5890 5888 5887 5886 5884 5883 5882 5881 5879 5878 5877 5876 5876 5875 5874 5874 5874 5873 5873 5873
5907 5908 5909 5909 5908 5909 5910 5909 5910 5910 5910 5910 5910 5909 5908 5908 5906 5905 5904 5902 5902 5900 5899 5897 5896 5895 5893 5892 5890 5889 5888 5886 5884 5883 5881 5880 5879 5878 5877 5876 5875 5874 5874 5873 5873 5872 5872 5871 5871
5904 5906 5906 5907 5906 5907 5907 5908 5908 5908 5908 5908 5908 5907 5907 5906 5905 5903 5903 5901 5900 5899 5898 5896 5895 5894 5892 5891 5889 5887 5885 5884 5883 5881 5880 5879 5878 5876 5875 5874 5873 5873 5872 5872 5871 5871 5870 5870 5870
5901 5903 5904 5905 5905 5905 5906 5906 5906 5906 5906 5906 5906 5906 5905 5904 5903 5902 5901 5900 5899 5898 5896 5895 5893 5892 5890 5889 5887 5885 5884 5882 5881 5879 5878 5877 5876 5875 5874 5873 5872 5871 5870 5870 5869 5869 5868 5867 5867
5899 5900 5902 5903 5903 5903 5905 5904 5904 5903 5903 5903 5903 5903 5903 5902 5902 5900 5899 5898 5897 5896 5894 5893 5891 5889 5888 5886 5885 5883 5881 5880 5879 5877 5876 5875 5874 5873 5872 5871 5870 5869 5868 5867 5867 5866 5865 5865 5865
5895 5897 5899 5900 5900 5901 5901 5901 5901 5900 5900 5900 5901 5901 5901 5900 5900 5898 5897 5896 5894 5893 5892 5891 5889 5887 5885 5884 5882 5881 5879 5878 5877 5875 5873 5872 5871 5870 5869 5868 5867 5866 5865 5865 5864 5863 5863 5862 5862
5892 5893 5895 5897 5898 5897 5897 5898 5897 5897 5898 5898 5898 5898 5898 5898 5897 5895 5895 5893 5892 5890 5889 5888 5886 5884 5883 5881 5879 5878 5877 5875 5874 5872 5871 5869 5868 5867 5867 5865 5864 5863 5862 5861 5860 5860 5860 5859 5859
5887 5888 5890 5893 5893 5893 5893 5894 5894 5894 5895 5895 5895 5895 5895 5895 5894 5892 5891 5890 5889 5887 5886 5884 5882 5881 5880 5878 5876 5875 5874 5872 5871 5870 5868 5867 5866 5864 5863 5862 5861 5860 5859 5858 5858 5857 5856 5856 5855
5882 5884 5886 5888 5889 5889 5890 5890 5891 5891 5891 5892 5892 5892 5892 5891 5891 5890 5888 5887 5886 5884 5882 5880 5879 5877 5876 5874 5873 5871 5870 5869 5867 5866 5865 5863 5862 5861 5860 5859 5858 5857 5856 5855 5854 5854 5853 5852 5852
5878 5880 5882 5884 5885 5885 5886 5887 5887 5887 5888 5888 5888 5888 5889 5888 5887 5886 5885 5883 5882 5880 5878 5876 5875 5873 5872 5870 5869 5868 5866 5865 5864 5862 5861 5859 5858 5857 5856 5855 5854 5853 5852 5851 5850 5850 5849 5849 5848
5875 5877 5878 5879 5881 5882 5883 5883 5883 5883 5884 5884 5884 5885 5884 5884 5884 5883 5881 5879 5877 5875 5874 5872 5870 5869 5868 5866 5864 5863 5862 5861 5859 5858 5856 5855 5854 5853 5852 5851 5850 5849 5848 5847 5846 5846 5845 5845 5844
5871 5872 5874 5876 5877 5878 5879 5879 5880 5880 5880 5880 5881 5881 5880 5880 5879 5878 5877 5875 5873 5872 5870 5868 5866 5864 5863 5861 5860 5858 5857 5856 5854 5853 5852 5851 5850 5849 5848 5847 5846 5844 5844 5843 5842 5841 5841 5840 5840
5866 5868 5870 5871 5872 5874 5875 5875 5875 5876 5876 5876 5876 5876 5875 5875 5874 5874 5872 5870 5869 5867 5865 5863 5861 5858 5857 5855 5854 5852 5852 5851 5849 5848 5847 5846 5845 5844 5843 5842 5840 5839 5839 5838 5837 5836 5836 5835 5835
5862 5864 5866 5867 5868 5869 5871 5870 5871 5872 5872 5872 5872 5871 5870 5869 5869 5869 5867 5866 5864 5861 5859 5857 5854 5852 5851 5850 5849 5847 5846 5845 5844 5843 5841 5840 5839 5839 5838 5837 5835 5834 5833 5832 5831 5831 5830 5830 5830
5858 5860 5862 5863 5864 5865 5866 5865 5867 5867 5867 5867 5867 5867 5865 5865 5865 5864 5862 5860 5858 5856 5853 5851 5849 5847 5846 5845 5843 5842 5840 5839 5838 5837 5836 5835 5834 5833 5832 5831 5830 5829 5828 5827 5826 5825 5825 5824 5824
5854 5855 5857 5859 5859 5860 5860 5861 5862 5862 5862 5863 5863 5862 5862 5861 5860 5858 5856 5855 5852 5850 5847 5845 5843 5842 5840 5838 5837 5835 5834 5833 5831 5830 5829 5828 5827 5826 5825 5825 5823 5822 5821 5821 5820 5819 5819 5819 5818
5851 5852 5853 5853 5854 5854 5855 5855 5857 5858 5858 5858 5857 5857 5856 5856 5854 5852 5850 5849 5847 5845 5842 5840 5838 5836 5833 5832 5830 5829 5828 5826 5824 5823 5822 5821 5820 5819 5819 5818 5817 5816 5815 5814 5813 5813 5813 5812 5812
5846 5847 5848 5849 5849 5850 5849 5852 5851 5852 5852 5852 5852 5851 5851 5849 5848 5846 5844 5843 5841 5839 5836 5834 5831 5829 5827 5825 5823 5821 5820 5819 5817 5816 5815 5814 5813 5812 5811 5811 5810 5809 5808 5808 5807 5807 5806 5806 5806
5841 5842 5844 5845 5845 5845 5845 5848 5846 5846 5847 5847 5847 5846 5845 5844 5843 5841 5839 5837 5834 5832 5829 5827 5824 5822 5820 5817 5815 5814 5813 5811 5809 5808 5807 5806 5805 5805 5804 5803 5802 5801 5801 5801 5800 5800 5800 5800 5800